Regional Weather Roundup
Issued by NWS Charleston, SC

Home | Current Version | Previous Version | Text Only | Print | Product List | Glossary On
Versions: 1 2 3 4 5 6 7 8 9 10 11 12 13 14 15 16 17 18 19 20 21 22 23 24 25 26 27 28 29 30 31 32 33 34 35 36 37 38 39 40 41 42 43 44 45 46 47 48 49 50
422
ASUS42 KCHS 240626
RWRCHS

REGIONAL WEATHER ROUNDUP
NATIONAL WEATHER SERVICE CHARLESTON SC
100 AM EST FRI FEB 24 2017

NOTE: "FAIR" INDICATES FEW OR NO CLOUDS BELOW 12,000 FEET WITH NO
SIGNIFICANT WEATHER AND/OR OBSTRUCTIONS TO VISIBILITY.

NOT ALL STATIONS ARE QUALITY CONTROLLED. USE DATA WITH CAUTION...
ESPECIALLY DEWPOINT OBSERVATIONS.

SCZ027-030-031-034>040-042>050-240700-
...SOUTHEAST SOUTH CAROLINA...

CITY           SKY/WX    TMP DP  RH WIND       PRES   REMARKS
N CHARLESTON   PTCLDY    59  56  89 NE7       29.87S
6HR MIN TEMP:  58; 6HR MAX TEMP:  68;

WATERFRONT PRK   N/A     62  60  93 N6        29.86S
MOUNT PLEASANT FAIR      61  59  94 CALM      29.87S
JOHNS ISLAND   FAIR      61  59  94 N6        29.86F
PINOPOLIS        N/A     57  57 100 CALM      29.80S
MONCKS CORNER  FAIR      57  55  94 NE3       29.88S
SUMMERVILLE    FAIR      55  54  94 CALM      29.89S
BEAUFORT MCAS  CLEAR     60  60 100 N7        29.86S
6HR MIN TEMP:  57; 6HR MAX TEMP:  68;

BEAUFORT ARPT  FAIR      61  59  94 NE7       29.86R
HILTON HEAD IS CLEAR     63  61  94 N7        29.86S
WALTERBORO     CLEAR     55  55 100 CALM      29.89S
ALLENDALE      FAIR      59  57  94 CALM      29.88S

...SOUTHERN MIDLANDS AND PEE DEE...

CITY           SKY/WX    TMP DP  RH WIND       PRES   REMARKS
GEORGETOWN     FAIR      54  52  94 CALM      29.89S
KINGSTREE      FAIR      52  50  93 CALM      29.90S
ORANGEBURG     CLEAR     56  55  97 NE3       29.90S
6HR MIN TEMP:  56; 6HR MAX TEMP:  69;

BARNWELL       FAIR      57  57 100 CALM      29.90S
AIKEN          FAIR      52  50  93 CALM      29.93S
MANNING        FAIR      54  52  94 MISG      29.90S
COLUMBIA       CLEAR     55  51  86 CALM      29.90S
6HR MIN TEMP:  55; 6HR MAX TEMP:  72;

SUMTER         CLEAR     54  51  90 N3        29.89S
6HR MIN TEMP:  54; 6HR MAX TEMP:  70;

FLORENCE       CLEAR     55  55 100 N3        29.91S
6HR MIN TEMP:  55; 6HR MAX TEMP:  67;

MYRTLE BEACH   CLEAR     59  57  93 N5        29.90S
N MYRTLE BEACH PTCLDY    57  57 100 NE5       29.89S
6HR MIN TEMP:  56; 6HR MAX TEMP:  66;


$$

GAZ063-065-086>088-099>101-113>116-118-119-134>141-150-240700-
...SOUTHEAST GEORGIA...

CITY           SKY/WX    TMP DP  RH WIND       PRES   REMARKS
SAVANNAH ARPT  CLEAR     60  57  89 N3        29.87R
6HR MIN TEMP:  60; 6HR MAX TEMP:  67;

HUNTER AAF     CLEAR     62  62 100 N5        29.84R
6HR MIN TEMP:  62; 6HR MAX TEMP:  67;

FORT STEWART   CLEAR     60  59  94 CALM      29.84S
6HR MIN TEMP:  60; 6HR MAX TEMP:  67;

STATESBORO     CLEAR     56  32  39 CALM      29.88F
SYLVANIA       CLEAR    N/A N/A N/A CALM      29.89S
CLAXTON        FAIR     N/A N/A N/A CALM      29.88S

...CSRA...CENTRAL AND FAR SOUTHEAST GEORGIA...

CITY           SKY/WX    TMP DP  RH WIND       PRES   REMARKS
THOMSON        CLEAR     54  53  99 CALM      29.94S
AUGUSTA-BUSH   CLEAR     56  53  90 CALM      29.89S
6HR MIN TEMP:  55; 6HR MAX TEMP:  66;

AUGUSTA-DANIEL CLEAR     64  54  69 E5        29.90S
SWAINSBORO     FAIR      61  59  94 CALM      29.89S
VIDALIA        CLEAR     61  61 100 E3        29.87F
EASTMAN        FAIR      55  55 100 CALM      29.90S
HAZLEHURST     FAIR      62  62 100 CALM      29.86S
ALMA           PTCLDY    59  58  96 CALM      29.85F
6HR MIN TEMP:  57; 6HR MAX TEMP:  69;

WAYCROSS       PTCLDY    62  62 100 NE3       29.84F
JESUP          FAIR      63  59  88 NE5       29.86S
BAXLEY         FAIR      61  61 100 NE5       29.86F
BRUNSWICK      CLEAR     64  63  94 N5        29.85S
SAINT SIMONS   PTCLDY    65  61  87 NE10      29.83R
6HR MIN TEMP:  65; 6HR MAX TEMP:  66;


$$

SCZ027-028-034-036>038-045-046-048>050-GAZ119-141-240700-
...LAKE AND SUPPLEMENTAL COASTAL OBSERVATIONS...

STATION/POSITION TIME  TEMP    WIND        PRES    WAVE   SWELL
                       AIR SEA DIR/SP/G            HT/PER HT/PER/DIR
                 (UTC) (F)     (DEG/KT/KT) (MB)    (FT/S) (FT/S/D)
WINYAH BAY       0545   62      50/  7     1012.0S
LAKE MURRAY      0550   62     100/  3/  4 1012.2S
ACE BASIN NERRS  0530   60        CALM     1011.0S
FORT PULASKI     0600   65 62   50/  7/ 10 1011.0
SAPELO ISLAND    0600   63      20/  6     1010.0

$$

ANZ835-935-AMZ111-154-330-350-352-354-370-450-454-472-240700-
...C-MAN AND BUOY OBSERVATIONS...

STATION/POSITION TIME  TEMP    WIND        PRES    WAVE   SWELL
                       AIR SEA DIR/SP/G            HT/PER HT/PER/DIR
                 (UTC) (F)     (DEG/KT/KT) (MB)    (FT/S) (FT/S/D)
BUOY 41004       0550   71 70   60/ 10/ 12 1010.1F  10/10  10/140/10
BUOY 41008       0550   64 62   40/ 14/ 16 1009.3S   6/10   5/120/10
FOLLY BEACH CMAN 0600   62      20/  7/  8 1011.6F
CAPERS NEARSHORE 0508   62 60   30/ 10/ 14 1011.3F
FRIPP NEARSHORE  0608   63 61   40/ 10/ 12 1010.5F


STATION/POSITION TIME  TEMP    WIND        PRES    WAVE   SWELL
                       AIR SEA DIR/SP/G            HT/PER HT/PER/DIR
                 (UTC) (F)     (DEG/KT/KT) (MB)    (FT/S) (FT/S/D)
5E ST. MARYS GA  0600      64                N/A     7/10   2/110/11
FRYING PAN BUOY  0610   71 71  100/ 12/ 16 1011.1
BUOY 41025       0550   68 74  120/ 17/ 21 1013.3F   6/ 7   2/ 60/11
CAPE LOOKOUT NC  0600   66     140/ 11/ 12 1012.5F
BUOY 41002       0550   69 69  100/ 25/ 29 1008.1F  12/ 8
BUOY 41010       NOT AVBL
ST AUGUSTINE FL  0600   66 67  360/ 15/ 16 1009.3S


$$




USA.gov is the U.S. government's official web portal to all federal, state and local government web resources and services.